Location: Enikep?du
(16.5133°N, 80.7066°E)
Time: 18:13:38
(UTC+00:00)

Cosmos 2082 - Pass Details

Date: 20 January 2020
Orbit: 833 x 856 km, 71.0° (Epoch: 25 February)

Event Time Altitude Azimuth Distance (km) Brightness Sun altitude
Rises 00:17:42 0° 344° (NNW) 3,407 6.5 -12.5°
Reaches altitude 10° 00:20:09 10° 345° (NNW) 2,473 5.8 -12.0°
Maximum altitude 00:25:50 84° 74° (ENE) 861 3.8 -10.7°
Drops below altitude 10° 00:31:33 10° 162° (SSE) 2,479 6.7 -9.4°
Sets 00:34:00 0° 163° (SSE) 3,414 7.4 -8.8°
